Time,TemperatureF,DewpointF,PressureIn,WindDirection,WindDirectionDegrees,WindSpeedMPH,WindSpeedGustMPH,Humidity,HourlyPrecipIn,Conditions,Clouds,dailyrainin,SoftwareType,DateUTC
2013-08-18 00:12:00,56.3,46.3,30.04,NW,315,4.2,-999.0,69,-99.99,,,0.00,Acu-Link.com,2013-08-18 06:12:00,
2013-08-18 00:28:00,55.0,46.1,30.04,NE,45,0.0,-999.0,72,-99.99,,,0.00,Acu-Link.com,2013-08-18 06:28:00,
2013-08-18 00:43:00,53.8,45.4,30.05,NNW,337,2.2,-999.0,73,-99.99,,,0.00,Acu-Link.com,2013-08-18 06:43:00,
2013-08-18 00:58:00,52.2,46.2,30.06,WSW,247,0.0,-999.0,80,-99.99,,,0.00,Acu-Link.com,2013-08-18 06:58:00,
2013-08-18 01:14:00,51.1,45.1,30.06,SSW,202,0.0,-999.0,80,-99.99,,,0.00,Acu-Link.com,2013-08-18 07:14:00,
2013-08-18 01:29:00,50.5,45.2,30.05,SSW,202,0.0,-999.0,82,-99.99,,,0.00,Acu-Link.com,2013-08-18 07:29:00,
2013-08-18 01:44:00,50.0,44.7,30.05,NNE,22,2.7,-999.0,82,-99.99,,,0.00,Acu-Link.com,2013-08-18 07:44:00,
2013-08-18 01:59:00,48.4,45.0,30.06,NE,45,1.7,-999.0,88,-99.99,,,0.00,Acu-Link.com,2013-08-18 07:59:00,
2013-08-18 02:15:00,48.2,45.1,30.06,NNE,22,0.0,-999.0,89,-99.99,,,0.00,Acu-Link.com,2013-08-18 08:15:00,
2013-08-18 02:30:00,47.3,45.7,30.06,North,0,0.0,-999.0,94,-99.99,,,0.00,Acu-Link.com,2013-08-18 08:30:00,
2013-08-18 02:45:00,47.5,46.7,30.06,East,90,0.0,-999.0,97,-99.99,,,0.00,Acu-Link.com,2013-08-18 08:45:00,
2013-08-18 03:01:00,45.9,45.4,30.06,WSW,247,0.0,-999.0,98,-99.99,,,0.00,Acu-Link.com,2013-08-18 09:01:00,
2013-08-18 03:16:00,45.1,44.6,30.06,WSW,247,0.0,-999.0,98,-99.99,,,0.00,Acu-Link.com,2013-08-18 09:16:00,
2013-08-18 03:31:00,44.1,43.6,30.06,NNW,337,0.0,-999.0,98,-99.99,,,0.00,Acu-Link.com,2013-08-18 09:31:00,
2013-08-18 03:46:00,43.9,43.4,30.07,West,270,0.0,-999.0,98,-99.99,,,0.00,Acu-Link.com,2013-08-18 09:46:00,
2013-08-18 04:01:00,45.3,44.8,30.07,NNW,337,0.0,-999.0,98,-99.99,,,0.00,Acu-Link.com,2013-08-18 10:01:00,
2013-08-18 04:17:00,44.6,44.1,30.07,NW,315,0.0,-999.0,98,-99.99,,,0.00,Acu-Link.com,2013-08-18 10:17:00,
2013-08-18 04:32:00,43.7,43.2,30.07,WNW,292,0.0,-999.0,98,-99.99,,,0.00,Acu-Link.com,2013-08-18 10:32:00,
2013-08-18 04:47:00,43.3,42.8,30.08,West,270,0.0,-999.0,98,-99.99,,,0.00,Acu-Link.com,2013-08-18 10:47:00,
2013-08-18 05:02:00,42.8,42.3,30.09,NNW,337,0.0,-999.0,98,-99.99,,,0.00,Acu-Link.com,2013-08-18 11:02:00,
2013-08-18 05:17:00,42.1,41.6,30.09,NE,45,0.0,-999.0,98,-99.99,,,0.00,Acu-Link.com,2013-08-18 11:17:00,
2013-08-18 05:33:00,42.8,42.3,30.09,ESE,112,0.0,-999.0,98,-99.99,,,0.00,Acu-Link.com,2013-08-18 11:33:00,
2013-08-18 05:48:00,42.8,42.3,30.10,North,0,2.2,-999.0,98,-99.99,,,0.00,Acu-Link.com,2013-08-18 11:48:00,
2013-08-18 06:03:00,45.1,44.6,30.10,ENE,67,2.7,-999.0,98,-99.99,,,0.00,Acu-Link.com,2013-08-18 12:03:00,
2013-08-18 06:18:00,44.2,43.7,30.10,NNW,337,0.0,-999.0,98,-99.99,,,0.00,Acu-Link.com,2013-08-18 12:18:00,
2013-08-18 06:34:00,43.3,42.8,30.11,NNE,22,0.0,-999.0,98,-99.99,,,0.00,Acu-Link.com,2013-08-18 12:34:00,
2013-08-18 06:49:00,44.1,43.6,30.11,WSW,247,0.0,-999.0,98,-99.99,,,0.00,Acu-Link.com,2013-08-18 12:49:00,
2013-08-18 07:04:00,47.8,45.3,30.13,North,0,0.0,-999.0,91,-99.99,,,0.00,Acu-Link.com,2013-08-18 13:04:00,
2013-08-18 07:19:00,50.4,46.7,30.13,NNE,22,0.0,-999.0,87,-99.99,,,0.00,Acu-Link.com,2013-08-18 13:19:00,
2013-08-18 07:35:00,54.9,47.5,30.13,NE,45,2.2,-999.0,76,-99.99,,,0.00,Acu-Link.com,2013-08-18 13:35:00,
2013-08-18 07:50:00,57.4,47.7,30.13,NNW,337,3.2,-999.0,70,-99.99,,,0.00,Acu-Link.com,2013-08-18 13:50:00,
2013-08-18 08:05:00,61.5,48.8,30.13,NE,45,2.7,-999.0,63,-99.99,,,0.00,Acu-Link.com,2013-08-18 14:05:00,
2013-08-18 08:20:00,62.2,51.1,30.13,South,180,2.7,-999.0,67,-99.99,,,0.00,Acu-Link.com,2013-08-18 14:20:00,
2013-08-18 08:36:00,63.5,51.5,30.13,South,180,2.2,-999.0,65,-99.99,,,0.00,Acu-Link.com,2013-08-18 14:36:00,
2013-08-18 08:51:00,64.9,51.1,30.13,SSE,157,1.7,-999.0,61,-99.99,,,0.00,Acu-Link.com,2013-08-18 14:51:00,
2013-08-18 09:06:00,63.0,51.9,30.12,South,180,2.2,-999.0,67,-99.99,,,0.00,Acu-Link.com,2013-08-18 15:06:00,
2013-08-18 09:21:00,65.3,51.9,30.12,South,180,2.7,-999.0,62,-99.99,,,0.00,Acu-Link.com,2013-08-18 15:21:00,
2013-08-18 09:37:00,65.7,51.4,30.12,WSW,247,0.0,-999.0,60,-99.99,,,0.00,Acu-Link.com,2013-08-18 15:37:00,
2013-08-18 09:52:00,67.3,52.0,30.11,SSW,202,3.7,-999.0,58,-99.99,,,0.00,Acu-Link.com,2013-08-18 15:52:00,
2013-08-18 10:07:00,68.5,54.1,30.12,South,180,1.7,-999.0,60,-99.99,,,0.00,Acu-Link.com,2013-08-18 16:07:00,
2013-08-18 10:23:00,70.0,51.0,30.11,SW,225,2.2,-999.0,51,-99.99,,,0.00,Acu-Link.com,2013-08-18 16:23:00,
2013-08-18 10:38:00,70.5,54.0,30.11,SSW,202,2.2,-999.0,56,-99.99,,,0.00,Acu-Link.com,2013-08-18 16:38:00,
2013-08-18 10:54:00,72.0,54.9,30.12,NNW,337,2.7,-999.0,55,-99.99,,,0.00,Acu-Link.com,2013-08-18 16:54:00,
2013-08-18 11:09:00,73.6,55.4,30.10,South,180,2.2,-999.0,53,-99.99,,,0.00,Acu-Link.com,2013-08-18 17:09:00,
2013-08-18 11:25:00,74.5,54.6,30.09,SW,225,3.7,-999.0,50,-99.99,,,0.00,Acu-Link.com,2013-08-18 17:25:00,
2013-08-18 11:41:00,76.3,58.4,30.08,WSW,247,3.2,-999.0,54,-99.99,,,0.00,Acu-Link.com,2013-08-18 17:41:00,
2013-08-18 11:56:00,77.4,55.6,30.07,SSW,202,5.3,-999.0,47,-99.99,,,0.00,Acu-Link.com,2013-08-18 17:56:00,
2013-08-18 12:11:00,80.4,58.9,30.06,South,180,4.7,-999.0,48,-99.99,,,0.00,Acu-Link.com,2013-08-18 18:11:00,
2013-08-18 12:29:00,80.2,57.5,30.04,East,90,1.7,-999.0,46,-99.99,,,0.00,Acu-Link.com,2013-08-18 18:29:00,
2013-08-18 12:44:00,81.7,57.6,30.03,NNE,22,5.3,-999.0,44,-99.99,,,0.00,Acu-Link.com,2013-08-18 18:44:00,
2013-08-18 12:59:00,81.0,54.4,30.03,NE,45,6.8,-999.0,40,-99.99,,,0.00,Acu-Link.com,2013-08-18 18:59:00,
2013-08-18 13:16:00,79.3,53.5,30.03,NE,45,6.3,-999.0,41,-99.99,,,0.00,Acu-Link.com,2013-08-18 19:16:00,
2013-08-18 13:31:00,81.3,56.0,30.02,West,270,0.0,-999.0,42,-99.99,,,0.00,Acu-Link.com,2013-08-18 19:31:00,
2013-08-18 13:47:00,81.0,53.0,30.01,WNW,292,3.7,-999.0,38,-99.99,,,0.00,Acu-Link.com,2013-08-18 19:47:00,
2013-08-18 14:05:00,75.6,51.5,30.03,NE,45,4.7,-999.0,43,-99.99,,,0.00,Acu-Link.com,2013-08-18 20:05:00,
2013-08-18 14:20:00,71.6,51.4,30.05,ESE,112,6.3,-999.0,49,-99.99,,,0.00,Acu-Link.com,2013-08-18 20:20:00,
2013-08-18 14:35:00,69.3,50.9,30.07,SSW,202,12.5,-999.0,52,-99.99,,,0.00,Acu-Link.com,2013-08-18 20:35:00,
2013-08-18 14:50:00,66.0,52.6,30.08,SSW,202,5.3,-999.0,62,-99.99,,,0.00,Acu-Link.com,2013-08-18 20:50:00,
2013-08-18 15:05:00,64.2,53.4,30.09,South,180,5.3,-999.0,68,-99.99,,,0.00,Acu-Link.com,2013-08-18 21:05:00,
2013-08-18 15:21:00,63.0,54.6,30.09,SW,225,6.3,-999.0,74,-99.99,,,0.00,Acu-Link.com,2013-08-18 21:21:00,
2013-08-18 15:36:00,62.6,53.1,30.11,West,270,5.3,-999.0,71,-99.99,,,0.00,Acu-Link.com,2013-08-18 21:36:00,
2013-08-18 15:51:00,61.9,53.1,30.11,West,270,3.7,-999.0,73,-99.99,,,0.00,Acu-Link.com,2013-08-18 21:51:00,
2013-08-18 16:07:00,59.7,53.9,30.11,South,180,4.7,-999.0,81,-99.99,,,0.00,Acu-Link.com,2013-08-18 22:07:00,
2013-08-18 16:22:00,58.8,56.8,30.10,ENE,67,4.7,-999.0,93,-99.99,,,0.00,Acu-Link.com,2013-08-18 22:22:00,
2013-08-18 16:37:00,59.0,58.1,30.11,ESE,112,6.3,-999.0,97,-99.99,,,0.00,Acu-Link.com,2013-08-18 22:37:00,
2013-08-18 16:53:00,61.3,56.4,30.12,NNW,337,7.3,-999.0,84,-99.99,,,0.01,Acu-Link.com,2013-08-18 22:53:00,
2013-08-18 17:08:00,63.1,54.3,30.11,NNE,22,5.3,-999.0,73,-99.99,,,0.01,Acu-Link.com,2013-08-18 23:08:00,
2013-08-18 17:23:00,63.5,54.7,30.11,NE,45,4.2,-999.0,73,-99.99,,,0.01,Acu-Link.com,2013-08-18 23:23:00,
2013-08-18 17:38:00,63.1,57.2,30.10,NE,45,4.2,-999.0,81,-99.99,,,0.01,Acu-Link.com,2013-08-18 23:38:00,
2013-08-18 17:53:00,63.5,58.2,30.10,NNE,22,2.7,-999.0,83,-99.99,,,0.01,Acu-Link.com,2013-08-18 23:53:00,
2013-08-18 18:08:00,63.9,56.2,30.09,North,0,5.8,-999.0,76,-99.99,,,0.01,Acu-Link.com,2013-08-19 00:08:00,
2013-08-18 18:24:00,64.8,56.3,30.09,North,0,0.0,-999.0,74,-99.99,,,0.01,Acu-Link.com,2013-08-19 00:24:00,
2013-08-18 18:39:00,66.6,56.5,30.08,NE,45,4.7,-999.0,70,-99.99,,,0.01,Acu-Link.com,2013-08-19 00:39:00,
2013-08-18 18:54:00,63.7,54.9,30.07,NNE,22,4.7,-999.0,73,-99.99,,,0.01,Acu-Link.com,2013-08-19 00:54:00,
2013-08-18 19:10:00,62.6,54.6,30.08,West,270,0.0,-999.0,75,-99.99,,,0.01,Acu-Link.com,2013-08-19 01:10:00,
2013-08-18 19:25:00,61.3,52.9,30.08,NNE,22,2.7,-999.0,74,-99.99,,,0.01,Acu-Link.com,2013-08-19 01:25:00,
2013-08-18 19:40:00,60.1,53.2,30.08,NW,315,5.8,-999.0,78,-99.99,,,0.01,Acu-Link.com,2013-08-19 01:40:00,
2013-08-18 19:56:00,59.2,53.0,30.08,NNE,22,3.7,-999.0,80,-99.99,,,0.01,Acu-Link.com,2013-08-19 01:56:00,
2013-08-18 20:11:00,57.9,52.4,30.07,North,0,2.2,-999.0,82,-99.99,,,0.01,Acu-Link.com,2013-08-19 02:11:00,
2013-08-18 20:26:00,55.9,52.7,30.08,South,180,0.0,-999.0,89,-99.99,,,0.01,Acu-Link.com,2013-08-19 02:26:00,
2013-08-18 20:42:00,54.5,53.7,30.09,North,0,3.2,-999.0,97,-99.99,,,0.01,Acu-Link.com,2013-08-19 02:42:00,
2013-08-18 20:57:00,54.5,53.4,30.09,WSW,247,0.0,-999.0,96,-99.99,,,0.01,Acu-Link.com,2013-08-19 02:57:00,
2013-08-18 21:12:00,53.6,53.0,30.10,North,0,2.7,-999.0,98,-99.99,,,0.01,Acu-Link.com,2013-08-19 03:12:00,
2013-08-18 21:27:00,53.1,52.5,30.09,SW,225,0.0,-999.0,98,-99.99,,,0.01,Acu-Link.com,2013-08-19 03:27:00,
2013-08-18 21:42:00,53.2,52.6,30.10,North,0,3.7,-999.0,98,-99.99,,,0.01,Acu-Link.com,2013-08-19 03:42:00,
2013-08-18 21:57:00,54.1,53.5,30.11,NNW,337,4.2,-999.0,98,-99.99,,,0.01,Acu-Link.com,2013-08-19 03:57:00,
2013-08-18 22:13:00,52.9,52.4,30.11,NNE,22,0.0,-999.0,98,-99.99,,,0.01,Acu-Link.com,2013-08-19 04:13:00,
2013-08-18 22:28:00,52.5,52.0,30.11,East,90,0.0,-999.0,98,-99.99,,,0.01,Acu-Link.com,2013-08-19 04:28:00,
2013-08-18 22:43:00,51.8,51.3,30.12,NNE,22,0.0,-999.0,98,-99.99,,,0.01,Acu-Link.com,2013-08-19 04:43:00,
2013-08-18 22:59:00,51.3,50.8,30.12,NE,45,0.0,-999.0,98,-99.99,,,0.01,Acu-Link.com,2013-08-19 04:59:00,
2013-08-18 23:14:00,50.7,50.2,30.12,NNW,337,0.0,-999.0,98,-99.99,,,0.01,Acu-Link.com,2013-08-19 05:14:00,
2013-08-18 23:30:00,50.4,49.9,30.13,NNE,22,0.0,-999.0,98,-99.99,,,0.01,Acu-Link.com,2013-08-19 05:30:00,
2013-08-18 23:45:00,50.0,49.5,30.13,WNW,292,0.0,-999.0,98,-99.99,,,0.01,Acu-Link.com,2013-08-19 05:45:00,